Location: Wyoming Infrared Observatory
(41.0971°N, 105.9765°W)
Time: 03:44:14
(UTC-06:00)

Amateur Radio Satellites - All Passes

Search period start: 31 July 2016 03:14
Search period end: 01 August 2016 03:14
Location: Wyoming Infrared Observatory, 41.0971°N, 105.9765°W

Satellite Date Start Highest point End Downlink Frequencies (MHz)
Time Altitude Azimuth
STARS 31 Jul 03:24:54 03:27:30 16° 63° (ENE) 03:30:07 437.465
BEESAT 3 31 Jul 03:36:34 03:39:56 27° 246° (WSW) 03:43:16 437.485
SWISSCUBE 31 Jul 03:40:39 03:44:15 21° 266° (W) 03:47:51 437.505
DANDE 31 Jul 03:41:26 03:45:51 29° 97° (E) 03:49:20 436.750
PCSat 31 Jul 03:50:03 03:55:27 64° 58° (ENE) 04:00:49 145.827
BEESAT 2 31 Jul 03:51:15 03:54:55 35° 244° (WSW) 03:58:34 435.950
Cosmos 2499 31 Jul 03:52:26 03:59:40 46° 271° (W) 04:06:26 435.465 / 435.565
MOZHAYETS 4 31 Jul 04:01:55 04:06:33 80° 76° (ENE) 04:11:11
BEESAT 31 Jul 04:02:44 04:05:18 14° 269° (W) 04:07:52 436.000
GONETS M04 31 Jul 04:15:50 04:22:55 28° 278° (W) 04:30:02
CUSAT 1 31 Jul 04:21:00 04:24:05 25° 282° (WNW) 04:26:40 437.405
Oscar 19 31 Jul 04:23:42 04:25:39 12° 301° (WNW) 04:27:37 437.125/150
ITAMSAT 1 31 Jul 04:25:54 04:31:04 68° 287° (WNW) 04:36:11 435.822/435.867
KKS-1 31 Jul 04:32:36 04:36:54 50° 260° (W) 04:41:16 437.445
AO-7 31 Jul 04:34:41 04:42:54 57° 103° (ESE) 04:51:00 29.400- 29.500
Gurwin Techsat 1B 31 Jul 04:38:22 04:42:04 20° 298° (WNW) 04:45:47 435.225
AIST 2 31 Jul 04:50:48 04:54:49 44° 53° (NE) 04:58:49 435.215
STARS 31 Jul 04:59:08 05:03:25 52° 260° (W) 05:07:45 437.465
RS-15 31 Jul 05:18:42 05:28:14 32° 103° (ESE) 05:38:07 29.354- 29.394
DANDE 31 Jul 05:24:51 05:28:30 21° 283° (WNW) 05:31:32 436.750
CUBESAT XI-V 31 Jul 05:33:19 05:37:56 88° 80° (E) 05:42:34 437.345
PCSat 31 Jul 05:34:47 05:38:17 18° 255° (WSW) 05:41:47 145.827
O/OREOS (USA 219) 31 Jul 05:46:18 05:50:46 53° 65° (ENE) 05:55:13 437.305
HORYU 2 31 Jul 05:47:27 05:51:47 47° 100° (E) 05:56:04 437.375
SO-50 31 Jul 06:10:20 06:12:33 13° 107° (ESE) 06:14:46 436.795
NOAA 18 31 Jul 06:12:16 06:15:21 15° 91° (E) 06:18:23 137.9125
Cubesat XI-IV 31 Jul 06:15:52 06:19:11 16° 91° (E) 06:22:27 437.490
BRITE-PL 31 Jul 06:26:20 06:31:02 39° 98° (E) 06:36:01 437.365/2234.400
AO-7 31 Jul 06:28:00 06:35:16 35° 302° (WNW) 06:42:30 29.400- 29.500
AIST 2 31 Jul 06:30:10 06:32:58 18° 249° (WSW) 06:35:45 435.215
CUTE-I 31 Jul 06:37:11 06:41:38 26° 95° (E) 06:46:03 437.470
DOVE 4 31 Jul 06:38:37 06:40:14 11° 88° (E) 06:41:52 437.250
LilacSat-2 31 Jul 06:41:19 06:44:30 24° 95° (E) 06:47:39 437.200
NOAA 15 31 Jul 06:42:10 06:47:06 38° 98° (E) 06:51:59 137.62
GOMX 1 31 Jul 07:05:28 07:10:28 45° 98° (E) 07:15:38 467.674
STRAND 1 31 Jul 07:13:20 07:18:23 60° 73° (ENE) 07:23:28 437.568
HORYU 2 31 Jul 07:25:04 07:27:57 17° 296° (WNW) 07:30:49 437.375
O/OREOS (USA 219) 31 Jul 07:27:11 07:29:41 15° 261° (W) 07:32:11 437.305
RS-15 31 Jul 07:28:04 07:39:34 74° 306° (NW) 07:51:46 29.354- 29.394
SO-50 31 Jul 07:47:32 07:52:25 77° 303° (WNW) 07:57:17 436.795
Cosmos 2491 31 Jul 07:47:37 07:55:31 36° 71° (ENE) 08:03:22 435.465 / 435.565
NOAA 18 31 Jul 07:51:00 07:56:32 72° 287° (WNW) 08:02:01 137.9125
CINEMA 3 31 Jul 07:52:57 07:56:23 18° 91° (E) 07:59:45 145.822/145.860
CANX-2 31 Jul 07:54:07 07:56:12 13° 91° (E) 07:58:14 2200.000
Cubesat XI-IV 31 Jul 07:54:23 07:59:40 62° 288° (WNW) 08:04:55 437.490
PRISM 31 Jul 08:03:54 08:07:06 23° 67° (ENE) 08:10:17 437.425
BRITE-PL 31 Jul 08:05:15 08:09:19 26° 292° (WNW) 08:13:39 437.365/2234.400
CUTE 1.7 + AOD 2 31 Jul 08:06:09 08:08:46 16° 92° (E) 08:11:22 437.475
DOVE 4 31 Jul 08:13:14 08:18:30 87° 283° (WNW) 08:23:49 437.250
LilacSat-2 31 Jul 08:15:38 08:18:42 23° 291° (WNW) 08:21:45 437.200
CUTE-I 31 Jul 08:16:50 08:21:46 39° 292° (WNW) 08:26:40 437.470
NOAA 15 31 Jul 08:22:19 08:26:41 27° 295° (WNW) 08:31:03 137.62
CUBEBUG 2 31 Jul 08:30:43 08:32:21 12° 88° (E) 08:33:58 437.445
SEEDS 31 Jul 08:36:11 08:39:36 24° 95° (E) 08:43:00 437.485
COMPASS 1 31 Jul 08:39:42 08:42:36 18° 93° (E) 08:45:29 437.405
GOMX 1 31 Jul 08:44:10 08:48:16 24° 293° (WNW) 08:52:31 467.674
STRAND 1 31 Jul 08:54:50 08:57:57 16° 269° (W) 09:01:04 437.568
HO-68 31 Jul 08:55:49 09:02:56 59° 102° (ESE) 09:09:59 435.675
AAUSAT CUBESAT 2 31 Jul 09:02:55 09:06:24 26° 95° (E) 09:09:53 437.432
YUBILEINY 31 Jul 09:13:40 09:22:01 51° 89° (E) 09:30:25 435.215
FUNcube-1 31 Jul 09:20:34 09:23:17 16° 91° (E) 09:25:56 145.935
ZACube-1 31 Jul 09:23:48 09:26:56 19° 92° (E) 09:29:59 437.345
CANX-2 31 Jul 09:28:15 09:32:20 50° 287° (WNW) 09:36:23 2200.000
CINEMA 3 31 Jul 09:28:54 09:33:47 51° 288° (WNW) 09:38:33 145.822/145.860
SO-50 31 Jul 09:31:09 09:33:42 14° 323° (NW) 09:36:14 436.795
UWE-3 31 Jul 09:33:01 09:37:15 36° 96° (E) 09:41:21 435.000/436.395/437.385
NOAA 18 31 Jul 09:35:07 09:36:11 11° 305° (NW) 09:37:15 137.9125
ANTELSAT 31 Jul 09:35:48 09:39:24 22° 66° (ENE) 09:43:01 437.575/2403.000
PRISM 31 Jul 09:38:45 09:42:16 28° 263° (W) 09:45:47 437.425
CUTE 1.7 + AOD 2 31 Jul 09:40:50 09:44:48 41° 288° (WNW) 09:48:45 437.475
Cosmos 2491 31 Jul 09:44:14 09:52:34 51° 271° (W) 10:00:56 435.465 / 435.565
RS-15 31 Jul 09:44:45 09:54:38 29° 335° (NNW) 10:04:54 29.354- 29.394
DOVE 4 31 Jul 09:53:25 09:55:24 12° 300° (WNW) 09:57:26 437.250
Oscar 11 31 Jul 09:55:27 09:59:32 41° 98° (E) 10:03:36 145.826/435.025
Cosmos 2504 31 Jul 09:57:02 10:04:41 34° 84° (E) 10:12:14 435.465 / 435.565
M-CUBED/EXP-1 PRIME 31 Jul 10:02:05 10:03:15 11° 93° (E) 10:04:25 437.505
CUBEBUG 2 31 Jul 10:04:48 10:09:29 68° 285° (WNW) 10:13:59 437.445
SEEDS 31 Jul 10:11:44 10:15:16 27° 291° (WNW) 10:18:45 437.485
COMPASS 1 31 Jul 10:14:30 10:18:16 35° 289° (WNW) 10:22:01 437.405
TIGRISAT 31 Jul 10:14:57 10:19:28 52° 73° (ENE) 10:24:03 435.000
DELFI C3 31 Jul 10:21:22 10:24:58 33° 97° (E) 10:28:31 145.870
AUBIESAT-1 31 Jul 10:22:44 10:25:25 15° 96° (E) 10:28:03 437.475
UNISAT 6 31 Jul 10:32:45 10:37:26 85° 73° (ENE) 10:42:10 437.425
AAUSAT CUBESAT 2 31 Jul 10:38:26 10:41:47 24° 291° (WNW) 10:45:06 437.432
HO-68 31 Jul 10:44:16 10:50:11 28° 300° (WNW) 10:56:04 435.675
NANOSAT C BR1 31 Jul 10:44:32 10:47:13 17° 65° (ENE) 10:49:55 145.865
DUCHIFAT 1 31 Jul 10:46:31 10:49:09 16° 65° (ENE) 10:51:49 145.980
FUNcube-1 31 Jul 10:55:32 10:59:47 45° 288° (WNW) 11:03:55 145.935
ZACube-1 31 Jul 10:59:13 11:03:22 39° 289° (WNW) 11:07:25 437.345
QB50P1 31 Jul 11:08:32 11:12:17 31° 69° (ENE) 11:16:03 145.935-145.965
UWE-3 31 Jul 11:09:58 11:13:27 22° 294° (WNW) 11:16:52 435.000/436.395/437.385
YUBILEINY 31 Jul 11:11:07 11:19:01 36° 289° (WNW) 11:27:01 435.215
ANTELSAT 31 Jul 11:11:29 11:15:50 39° 262° (W) 11:20:15 437.575/2403.000
POPSAT HIP 1 31 Jul 11:15:16 11:19:09 36° 71° (ENE) 11:23:06 437.405
HUMSAT D 31 Jul 11:32:08 11:36:19 77° 284° (WNW) 11:40:25 437.325/437.525
Oscar 11 31 Jul 11:32:26 11:35:21 18° 295° (WNW) 11:38:15 145.826/435.025
M-CUBED/EXP-1 PRIME 31 Jul 11:33:32 11:38:16 82° 290° (WNW) 11:42:55 437.505
CUBEBUG 1 31 Jul 11:36:05 11:37:48 12° 90° (E) 11:39:32 437.445
QB50P2 31 Jul 11:37:03 11:41:17 69° 75° (ENE) 11:45:34 145.880/145.840
POLYITAN 1 31 Jul 11:39:40 11:43:55 71° 75° (ENE) 11:48:13 437.675
AO-85 31 Jul 11:45:10 11:47:47 14° 107° (ESE) 11:50:22 145.980
VELOX 1 31 Jul 11:46:59 11:49:15 14° 91° (E) 11:51:30 145.980
Cosmos 2504 31 Jul 11:48:59 11:57:39 55° 283° (WNW) 12:06:14 435.465 / 435.565
ESTCUBE 1 31 Jul 11:49:22 11:53:09 26° 95° (E) 11:56:55 437.505/2401.250
TIGRISAT 31 Jul 11:53:34 11:56:27 16° 269° (W) 11:59:20 435.000
AUBIESAT-1 31 Jul 11:55:36 12:00:11 58° 292° (WNW) 12:04:40 437.475
DELFI C3 31 Jul 11:56:50 11:59:34 18° 293° (WNW) 12:02:18 145.870
50 SAT 31 Jul 12:01:22 12:03:49 17° 94° (E) 12:06:16 437.505
RS-15 31 Jul 12:03:33 12:12:47 24° 11° (N) 12:22:06 29.354- 29.394
DX 1 31 Jul 12:14:22 12:17:32 19° 94° (E) 12:20:42 434.975-435.025
BUGSAT 1 31 Jul 12:14:54 12:18:58 67° 75° (ENE) 12:23:08 437.445
NANOSAT C BR1 31 Jul 12:18:32 12:22:35 44° 261° (W) 12:26:41 145.865
UKube-1 31 Jul 12:19:11 12:22:01 17° 93° (E) 12:24:49 .
DUCHIFAT 1 31 Jul 12:20:25 12:24:28 45° 261° (W) 12:28:34 145.980
JAS-2 31 Jul 12:21:46 12:27:32 62° 73° (ENE) 12:32:48 435.910
Oscar 19 31 Jul 12:21:50 12:25:01 17° 62° (ENE) 12:28:12 437.125/150
AISAT 31 Jul 12:30:47 12:35:03 43° 99° (E) 12:39:19 437.250
Gurwin Techsat 1B 31 Jul 12:42:23 12:44:27 12° 58° (ENE) 12:46:31 435.225
SPROUT 31 Jul 12:42:26 12:46:06 26° 96° (E) 12:49:42 437.525
QB50P1 31 Jul 12:44:44 12:48:04 22° 266° (W) 12:51:26 145.935-145.965
POPSAT HIP 1 31 Jul 12:51:59 12:55:03 19° 267° (W) 12:58:08 437.405
AIST 1 31 Jul 13:06:32 13:10:42 61° 95° (E) 13:14:56
CUBEBUG 1 31 Jul 13:10:06 13:14:28 61° 286° (WNW) 13:18:50 437.445
M-CUBED/EXP-1 PRIME 31 Jul 13:10:46 13:11:59 11° 306° (NW) 13:13:11 437.505
TISAT 1 31 Jul 13:21:00 13:23:37 16° 92° (E) 13:26:13 437.305
VELOX 1 31 Jul 13:21:40 13:26:02 55° 287° (WNW) 13:30:23 145.980
AO-85 31 Jul 13:22:17 13:27:41 83° 301° (WNW) 13:32:50 145.980
ESTCUBE 1 31 Jul 13:26:02 13:29:55 29° 291° (WNW) 13:33:47 437.505/2401.250
GONETS M04 31 Jul 13:28:54 13:32:02 12° 73° (ENE) 13:35:11
50 SAT 31 Jul 13:34:23 13:37:29 27° 289° (WNW) 13:40:32 437.505
AO-7 31 Jul 13:45:00 13:50:05 18° 48° (NE) 13:55:10 29.400- 29.500
DX 1 31 Jul 13:49:47 13:53:51 38° 289° (WNW) 13:57:54 434.975-435.025
Cosmos 2504 31 Jul 13:51:24 13:53:12 11° 305° (NW) 13:54:59 435.465 / 435.565
UKube-1 31 Jul 13:54:08 13:58:14 42° 289° (WNW) 14:02:19 .
Oscar 19 31 Jul 13:58:44 14:03:48 63° 258° (WSW) 14:08:55 437.125/150
ITAMSAT 1 31 Jul 14:05:43 14:09:49 24° 64° (ENE) 14:13:54 435.822/435.867
AISAT 31 Jul 14:08:07 14:11:12 19° 295° (WNW) 14:14:17 437.250
JAS-2 31 Jul 14:09:24 14:12:57 17° 267° (W) 14:16:22 435.910
RS-15 31 Jul 14:17:44 14:29:32 47° 43° (NE) 14:41:14 29.354- 29.394
Gurwin Techsat 1B 31 Jul 14:18:16 14:23:35 88° 75° (ENE) 14:28:57 435.225
SPROUT 31 Jul 14:18:19 14:21:57 27° 291° (WNW) 14:25:35 437.525
DANDE 31 Jul 14:20:23 14:20:53 10° 74° (ENE) 14:21:22 436.750
BEESAT 31 Jul 14:24:02 14:26:46 15° 91° (E) 14:29:29 436.000
Cosmos 2499 31 Jul 14:35:16 14:42:30 30° 83° (E) 14:49:32 435.465 / 435.565
SO-50 31 Jul 14:40:07 14:42:48 15° 38° (NE) 14:45:26 436.795
AIST 1 31 Jul 14:47:27 14:48:45 11° 292° (WNW) 14:50:03
ITUPSAT 1 31 Jul 14:49:25 14:53:27 27° 96° (E) 14:57:27 437.325
CUSAT 1 31 Jul 14:51:07 14:54:24 57° 262° (W) 14:58:37 437.405
TISAT 1 31 Jul 14:55:25 14:59:28 43° 288° (WNW) 15:03:30 437.305
AO-85 31 Jul 15:05:39 15:08:53 16° 321° (NW) 15:12:00 145.980
GONETS M04 31 Jul 15:18:31 15:27:08 72° 94° (E) 15:35:49
PHONESAT 2.4 31 Jul 15:19:49 15:22:27 27° 157° (SSE) 15:25:08 2401.200-2431.200
AO-7 31 Jul 15:33:09 15:41:28 75° 69° (ENE) 15:49:50 29.400- 29.500
SWISSCUBE 31 Jul 15:39:20 15:44:07 82° 285° (WNW) 15:48:51 437.505
ITAMSAT 1 31 Jul 15:44:00 15:48:59 44° 261° (W) 15:53:59 435.822/435.867
MOZHAYETS 4 31 Jul 15:58:01 16:01:12 18° 92° (E) 16:04:22
BEESAT 31 Jul 16:00:14 16:04:54 56° 288° (WNW) 16:09:32 436.000
DANDE 31 Jul 16:01:22 16:03:33 20° 264° (W) 16:06:00 436.750
Gurwin Techsat 1B 31 Jul 16:02:53 16:04:12 11° 272° (W) 16:05:31 435.225
SO-50 31 Jul 16:19:19 16:23:58 88° 239° (WSW) 16:28:28 436.795
KKS-1 31 Jul 16:23:42 16:27:41 30° 97° (E) 16:31:37 437.445
Cosmos 2499 31 Jul 16:26:18 16:35:04 62° 281° (WNW) 16:43:33 435.465 / 435.565
ITUPSAT 1 31 Jul 16:27:04 16:31:16 32° 292° (WNW) 16:35:27 437.325
RS-15 31 Jul 16:30:32 16:42:34 62° 247° (WSW) 16:54:23 29.354- 29.394
HORYU 2 31 Jul 16:45:08 16:49:22 44° 71° (ENE) 16:53:40 437.375
STARS 31 Jul 16:48:48 16:52:38 27° 96° (E) 16:56:26 437.465
PHONESAT 2.4 31 Jul 16:55:40 16:58:44 73° 172° (S) 17:01:48 2401.200-2431.200
GONETS M04 31 Jul 17:17:58 17:24:46 25° 294° (WNW) 17:31:40
LilacSat-2 31 Jul 17:24:27 17:26:22 13° 65° (ENE) 17:28:19 437.200
BEESAT 3 31 Jul 17:26:16 17:30:01 47° 118° (ESE) 17:33:50 437.485
AO-7 31 Jul 17:28:35 17:34:56 24° 267° (W) 17:41:21 29.400- 29.500
CUBESAT XI-V 31 Jul 17:30:34 17:34:09 22° 94° (E) 17:37:42 437.345
MOZHAYETS 4 31 Jul 17:34:15 17:38:33 42° 289° (WNW) 17:42:49
Cubesat XI-IV 31 Jul 17:37:18 17:41:49 28° 66° (ENE) 17:46:21 437.490
NOAA 18 31 Jul 17:37:41 17:42:25 30° 65° (ENE) 17:47:11 137.9125
BRITE-PL 31 Jul 17:38:04 17:41:52 36° 71° (ENE) 17:45:46 437.365/2234.400
BEESAT 2 31 Jul 17:42:42 17:46:20 37° 116° (ESE) 17:50:01 435.950
CUTE-I 31 Jul 17:58:39 18:03:43 43° 69° (ENE) 18:08:47 437.470
KKS-1 31 Jul 18:00:24 18:04:07 26° 293° (WNW) 18:07:48 437.445
NOAA 15 31 Jul 18:02:04 18:07:14 61° 72° (ENE) 18:12:24 137.62
GOMX 1 31 Jul 18:14:11 18:18:08 40° 71° (ENE) 18:22:18 467.674
HORYU 2 31 Jul 18:23:09 18:26:08 17° 267° (W) 18:29:09 437.375
STARS 31 Jul 18:25:09 18:28:54 27° 292° (WNW) 18:32:39 437.465
Cosmos 2499 31 Jul 18:26:46 18:30:00 12° 303° (WNW) 18:33:12 435.465 / 435.565
PCSat 31 Jul 18:31:21 18:36:40 60° 115° (ESE) 18:42:00 145.827
PHONESAT 2.4 31 Jul 18:32:07 18:35:11 69° 189° (S) 18:38:15 2401.200-2431.200
RS-15 31 Jul 18:48:28 18:52:18 12° 267° (W) 18:56:07 29.354- 29.394
CANX-2 31 Jul 18:48:29 18:49:20 11° 62° (ENE) 18:50:12 2200.000
CINEMA 3 31 Jul 18:54:57 18:57:49 16° 63° (ENE) 19:00:46 145.822/145.860
LilacSat-2 31 Jul 18:56:32 19:00:16 46° 261° (W) 19:04:02 437.200
CUTE 1.7 + AOD 2 31 Jul 18:59:52 19:01:39 12° 63° (ENE) 19:03:27 437.475
BEESAT 3 31 Jul 19:05:12 19:07:56 18° 315° (NW) 19:10:42 437.485
CUBESAT XI-V 31 Jul 19:07:22 19:11:36 37° 290° (WNW) 19:15:51 437.345
Cubesat XI-IV 31 Jul 19:16:44 19:21:42 38° 262° (W) 19:26:44 437.490
NOAA 18 31 Jul 19:17:48 19:22:55 38° 262° (W) 19:28:05 137.9125
BRITE-PL 31 Jul 19:17:51 19:20:34 17° 268° (W) 19:23:20 437.365/2234.400
DOVE 4 31 Jul 19:18:42 19:23:04 90° 136° (SE) 19:27:44 437.250
BEESAT 2 31 Jul 19:21:11 19:24:17 21° 314° (NW) 19:27:25 435.950
HO-68 31 Jul 19:24:11 19:30:52 44° 65° (ENE) 19:37:36 435.675
YUBILEINY 31 Jul 19:24:23 19:31:19 25° 66° (ENE) 19:38:10 435.215
STRAND 1 31 Jul 19:24:48 19:28:33 20° 93° (E) 19:32:16 437.568
SEEDS 31 Jul 19:28:22 19:31:13 18° 66° (ENE) 19:34:04 437.485
CUBEBUG 2 31 Jul 19:29:22 19:30:45 11° 60° (ENE) 19:32:08 437.445
COMPASS 1 31 Jul 19:31:25 19:33:27 13° 64° (ENE) 19:35:29 437.405
CUTE-I 31 Jul 19:39:37 19:43:54 24° 266° (W) 19:48:14 437.470
NOAA 15 31 Jul 19:44:13 19:47:24 16° 269° (W) 19:50:36 137.62
ISS 31 Jul 19:49:41 19:52:52 56° 140° (SE) 19:56:05 145.825
AAUSAT CUBESAT 2 31 Jul 19:53:36 19:56:28 18° 67° (ENE) 19:59:21 437.432
GOMX 1 31 Jul 19:53:42 19:56:29 17° 269° (W) 19:59:22 467.674
O/OREOS (USA 219) 31 Jul 19:58:20 20:02:45 64° 109° (ESE) 20:07:11 437.305
PHONESAT 2.4 31 Jul 20:08:51 20:11:24 23° 205° (SSW) 20:13:56 2401.200-2431.200
AO-85 31 Jul 20:16:10 20:18:01 12° 35° (NE) 20:19:50 145.980
PCSat 31 Jul 20:16:13 20:20:28 23° 314° (NW) 20:24:44 145.827
FUNcube-1 31 Jul 20:16:25 20:18:49 14° 63° (ENE) 20:21:14 145.935
ZACube-1 31 Jul 20:19:47 20:22:38 16° 64° (ENE) 20:25:29 437.345
CANX-2 31 Jul 20:20:18 20:24:35 74° 259° (W) 20:28:51 2200.000
AIST 2 31 Jul 20:26:01 20:30:07 84° 301° (WNW) 20:34:16 435.215
UWE-3 31 Jul 20:29:34 20:33:37 31° 69° (ENE) 20:37:42 435.000/436.395/437.385
CINEMA 3 31 Jul 20:29:54 20:34:25 56° 261° (W) 20:39:11 145.822/145.860
CUTE 1.7 + AOD 2 31 Jul 20:32:45 20:36:58 62° 259° (W) 20:41:12 437.475
M-CUBED/EXP-1 PRIME 31 Jul 20:48:03 20:49:50 13° 55° (NE) 20:51:40 437.505
Cosmos 2491 31 Jul 20:48:53 20:56:46 40° 86° (E) 21:04:40 435.465 / 435.565
Oscar 11 31 Jul 20:50:03 20:53:54 32° 70° (ENE) 20:57:45 145.826/435.025
CUBEBUG 2 31 Jul 21:01:57 21:06:36 85° 256° (WSW) 21:11:23 437.445
SEEDS 31 Jul 21:02:39 21:06:37 39° 262° (W) 21:10:35 437.485
STRAND 1 31 Jul 21:03:04 21:07:57 47° 289° (WNW) 21:12:48 437.568
COMPASS 1 31 Jul 21:04:28 21:08:33 54° 260° (W) 21:12:39 437.405
DELFI C3 31 Jul 21:07:41 21:10:36 20° 68° (ENE) 21:13:30 145.870
AUBIESAT-1 31 Jul 21:08:35 21:11:13 17° 58° (ENE) 21:14:00 437.475
HO-68 31 Jul 21:12:07 21:18:38 37° 263° (W) 21:25:12 435.675
PRISM 31 Jul 21:19:42 21:23:30 35° 98° (E) 21:27:18 437.425
YUBILEINY 31 Jul 21:20:10 21:28:59 73° 266° (W) 21:37:42 435.215
ISS 31 Jul 21:26:47 21:29:30 24° 338° (NNW) 21:32:13 145.825
AAUSAT CUBESAT 2 31 Jul 21:27:51 21:31:41 36° 262° (W) 21:35:32 437.432
O/OREOS (USA 219) 31 Jul 21:40:11 21:42:36 14° 307° (NW) 21:45:03 437.305
Cosmos 2504 31 Jul 21:42:28 21:50:22 57° 77° (ENE) 21:57:40 435.465 / 435.565
FUNcube-1 31 Jul 21:50:01 21:54:32 62° 260° (W) 21:59:05 145.935
ZACube-1 31 Jul 21:54:00 21:58:27 53° 261° (W) 22:02:58 437.345
AO-85 31 Jul 21:54:56 21:59:20 80° 57° (ENE) 22:03:22 145.980
UWE-3 31 Jul 22:06:07 22:10:00 27° 265° (W) 22:14:00 435.000/436.395/437.385
AIST 2 31 Jul 22:07:45 22:09:17 12° 322° (NW) 22:10:48 435.215
TIGRISAT 31 Jul 22:09:30 22:10:32 11° 88° (E) 22:11:35 435.000
M-CUBED/EXP-1 PRIME 31 Jul 22:19:51 22:23:43 65° 254° (WSW) 22:27:57 437.505
HUMSAT D 31 Jul 22:22:38 22:26:55 71° 75° (ENE) 22:31:13 437.325/437.525
UNISAT 6 31 Jul 22:25:50 22:28:59 18° 92° (E) 22:32:04 437.425
Oscar 11 31 Jul 22:26:38 22:30:03 22° 266° (W) 22:33:29 145.826/435.025
CUBEBUG 1 31 Jul 22:33:21 22:34:16 11° 61° (ENE) 22:35:11 437.445
AUBIESAT-1 31 Jul 22:41:29 22:45:16 44° 257° (WSW) 22:49:21 437.475
DELFI C3 31 Jul 22:41:44 22:45:16 30° 264° (W) 22:48:47 145.870
VELOX 1 31 Jul 22:44:57 22:46:57 13° 62° (ENE) 22:48:57 145.980
Cosmos 2491 31 Jul 22:45:18 22:53:28 44° 286° (WNW) 23:01:43 435.465 / 435.565
ESTCUBE 1 31 Jul 22:48:59 22:52:36 24° 67° (ENE) 22:56:14 437.505/2401.250
PRISM 31 Jul 22:55:40 22:58:34 19° 294° (WNW) 23:01:27 437.425
ANTELSAT 31 Jul 23:03:10 23:07:34 44° 98° (E) 23:11:50 437.575/2403.000
ISS 31 Jul 23:05:11 23:06:49 13° 358° (N) 23:08:26 145.825
DX 1 31 Jul 23:10:17 23:13:08 17° 64° (ENE) 23:16:00 434.975-435.025
UKube-1 31 Jul 23:14:14 23:16:43 15° 63° (ENE) 23:19:12 .
AIST 1 31 Jul 23:14:36 23:17:16 16° 71° (ENE) 23:19:55
YUBILEINY 31 Jul 23:20:31 23:24:05 13° 286° (WNW) 23:27:39 435.215
QB50P2 31 Jul 23:24:24 23:25:47 11° 90° (E) 23:27:11 145.880/145.840
POLYITAN 1 31 Jul 23:26:55 23:28:26 12° 90° (E) 23:29:57 437.675
AISAT 31 Jul 23:28:00 23:32:02 37° 70° (ENE) 23:36:07 437.250
SPROUT 31 Jul 23:36:17 23:39:27 21° 66° (ENE) 23:42:39 437.525
Cosmos 2504 31 Jul 23:36:48 23:43:05 27° 278° (W) 23:49:04 435.465 / 435.565
TIGRISAT 31 Jul 23:43:10 23:47:45 72° 286° (WNW) 23:52:12 435.000
UNISAT 6 01 Aug 00:01:33 00:05:55 43° 288° (WNW) 00:10:08 437.425
NANOSAT C BR1 01 Aug 00:03:08 00:06:50 28° 96° (E) 00:10:30 145.865
DUCHIFAT 1 01 Aug 00:04:47 00:08:27 27° 96° (E) 00:12:04 145.980
CUBEBUG 1 01 Aug 00:05:36 00:09:54 76° 258° (WSW) 00:14:15 437.445
50 SAT 01 Aug 00:10:58 00:14:36 66° 259° (WSW) 00:18:14 437.505
TISAT 1 01 Aug 00:13:38 00:15:27 13° 63° (ENE) 00:17:16 437.305
VELOX 1 01 Aug 00:18:32 00:22:52 63° 258° (WSW) 00:27:15 145.980
ESTCUBE 1 01 Aug 00:25:16 00:29:16 31° 263° (W) 00:33:16 437.505/2401.250
QB50P1 01 Aug 00:28:22 00:32:36 58° 100° (E) 00:36:48 145.935-145.965
POPSAT HIP 1 01 Aug 00:35:19 00:39:37 69° 102° (ESE) 00:43:52 437.405
ANTELSAT 01 Aug 00:40:45 00:43:54 19° 296° (WNW) 00:47:00 437.575/2403.000
ISS 01 Aug 00:41:43 00:44:12 19° 18° (NNE) 00:46:40 145.825
DX 1 01 Aug 00:44:52 00:48:59 43° 261° (W) 00:53:09 434.975-435.025
UKube-1 01 Aug 00:48:09 00:52:20 51° 260° (W) 00:56:32 .
AIST 1 01 Aug 00:50:57 00:55:06 44° 267° (W) 00:59:16
QB50P2 01 Aug 00:57:44 01:01:59 61° 286° (WNW) 01:06:11 145.880/145.840
POLYITAN 1 01 Aug 01:00:23 01:04:37 60° 286° (WNW) 01:08:49 437.675
AISAT 01 Aug 01:05:28 01:08:38 19° 266° (W) 01:11:50 437.250
SWISSCUBE 01 Aug 01:10:48 01:13:03 13° 61° (ENE) 01:15:18 437.505
SPROUT 01 Aug 01:11:15 01:15:10 35° 263° (W) 01:19:08 437.525
JAS-2 01 Aug 01:14:29 01:19:50 54° 101° (E) 01:25:44 435.910
GONETS M04 01 Aug 01:29:08 01:37:04 36° 71° (ENE) 01:44:58
BEESAT 01 Aug 01:30:20 01:33:37 19° 64° (ENE) 01:36:54 436.000
BUGSAT 1 01 Aug 01:31:54 01:36:09 69° 285° (WNW) 01:40:22 437.445
NANOSAT C BR1 01 Aug 01:38:58 01:42:27 25° 292° (WNW) 01:45:55 145.865
DUCHIFAT 1 01 Aug 01:40:31 01:44:02 25° 292° (WNW) 01:47:31 145.980
BEESAT 3 01 Aug 01:43:37 01:47:07 28° 49° (NE) 01:50:33 437.485
TISAT 1 01 Aug 01:46:25 01:50:34 60° 259° (W) 01:54:46 437.305
ITUPSAT 1 01 Aug 01:55:58 02:00:12 32° 68° (ENE) 02:04:26 437.325
BEESAT 2 01 Aug 02:00:48 02:04:06 24° 48° (NE) 02:07:24 435.950
QB50P1 01 Aug 02:05:50 02:07:53 13° 297° (WNW) 02:09:56 145.935-145.965
Oscar 19 01 Aug 02:10:18 02:15:17 46° 99° (E) 02:20:15 437.125/150
POPSAT HIP 1 01 Aug 02:13:22 02:14:49 12° 298° (WNW) 02:16:15 437.405
ISS 01 Aug 02:17:43 02:20:59 88° 221° (SW) 02:24:14 145.825
Cosmos 2499 01 Aug 02:18:38 02:26:02 48° 75° (ENE) 02:32:55 435.465 / 435.565
Gurwin Techsat 1B 01 Aug 02:34:51 02:39:42 35° 97° (E) 02:44:31 435.225
SWISSCUBE 01 Aug 02:45:27 02:50:13 73° 257° (WSW) 02:55:01 437.505
MOZHAYETS 4 01 Aug 03:00:02 03:03:14 19° 65° (ENE) 03:06:26
JAS-2 01 Aug 03:00:39 03:04:38 21° 296° (WNW) 03:08:52 435.910
